Вернуться в каталог

FENGYUN 1C DEB

АктивенSSO
NORAD 30874·DEBRIS·🇨🇳 China

Запущен May 10, 1999 с Taiyuan Satellite Launch Center

Loading…

Ближайшие Пролёты (ближайшие 24 часа)

TLE

СвежийSource: Space-Track

Эпоха: Sep 14, 2026, 08:28 UTC

1 30874U 99025AXL 26257.35343161  .00000502  00000-0  25316-3 0  9992
2 30874  98.4668 281.3821 0040380 321.5802  53.5652 14.20100037  9289

Отслеживайте FENGYUN 1C DEB в реальном времени с AllMySat

Download on the App Store